アトラス彗星

C/2017 T3 ( ATLAS )

English version
Home page
Updated on October 30, 2017

---------------------------------------------------------------------

・ プロフィール

発見日 2017年10月14日
発見光度 18.3等
発見者 Asteroid Terrestrial-impact Last Alert System (ATLAS) search program

・ 軌道要素

Epoch 2018 July 21.0 TT = JDT 2458320.5
T 2018 July 19.14132 TT                                 MPCW
q   0.8254088            (2000.0)            P               Q
z  +0.0008544      Peri.  246.88755     +0.22843518     -0.59999011
 +/-0.0001770      Node   230.09610     +0.65986119     -0.48361719
e   0.9992948      Incl.   88.10118     -0.71582161     -0.63728038
From 128 observations 2017 Sept. 11-Oct. 27, mean residual 0".5.

・ 星図

・ 光度変化

        m1 = 9.0 + 5 logΔ + 10.0 log r

---------------------------------------------------------------------

軌道要素はM.P.E.C. 2017-U238に掲載されたものです。
星図はステラナビゲータ Ver.10 (アストロアーツ) で作成したものです。
光度グラフはComet for Windowsで作成したものです。

---------------------------------------------------------------------

Copyright(C) Seiichi Yoshida (comet@aerith.net). All rights reserved.